Location: Fort Worth, Tx
(32.7431°N, 97.3695°W)
Time: 11:07:07
(UTC-04:00)

Explorer 11/Cluster Stage 4 - Pass Details

Date: 28 February 2024
Orbit: 465 x 1219 km, 28.8° (Epoch: 24 April)

Event Time Altitude Azimuth Distance (km) Brightness Sun altitude
Exits shadow 07:31:17 - 256° (WSW) 3,224 9.1 -6.6°
Reaches altitude 10° 07:33:30 10° 241° (WSW) 2,731 8.9 -6.1°
Maximum altitude 07:36:25 13° 215° (SW) 2,377 8.8 -5.5°
Drops below altitude 10° 07:39:07 10° 188° (S) 2,479 9.1 -5.0°
Sets 07:42:53 0° 161° (SSE) 3,222 10.1 -4.2°
